Retour au catalogue

STARLINK-32337

ActifCommunicationsVLEO
NORAD 61643·PAYLOAD·🇺🇸 United States

Lancé Oct 23, 2024 depuis Cape Canaveral Space Force Station

Loading…

Prochains Passages (prochaines 24 heures)

TLE

FraisSource: CelesTrak SupGP

Époque: Sep 15, 2026, 03:31 UTC

1 61643C 24191Y   26258.14701389  .00029253  00000+0  10597-2 0  2585
2 61643  43.0000 164.4746 0001259 277.6126  33.4500 15.27558908    15

Suivez STARLINK-32337 en temps réel avec AllMySat

Download on the App Store